764  
ASUS46 KPQR 131710  
RWROR  
 
OREGON REGIONAL WEATHER ROUNDUP  
NATIONAL WEATHER SERVICE PORTLAND OR  
1000 AM PDT THU JUN 13 2024  
 
NOTE: "FAIR" INDICATES FEW OR NO CLOUDS BELOW 12,000 FEET WITH  
NO SIGNIFICANT WEATHER AND/OR S TO VISIBILITY
.  
 
ORZ001>013-131800-  
NORTHWEST OREGON  
 
 
CITY SKY/WX TMP DP RH WIND PRES REMARKS
 
ASTORIA PTSUNNY 58 49 72 NW9 30.11F  
TILLAMOOK MOSUNNY 54 54 100 CALM 30.12S  
NEWPORT SUNNY 54 46 76 N16G25 30.14R  
FLORENCE SUNNY 55 50 82 N15G24 30.10S  
PORTLAND MOSUNNY 61 44 53 VRB3 30.07F  
VANCOUVER WA MOSUNNY 61 44 53 NW6 30.08F  
SCAPPOOSE MOSUNNY N/A N/A N/A N8 30.07S  
HILLSBORO MOSUNNY 61 45 55 VRB5 30.07S  
AURORA SUNNY 61 46 57 NE7 30.08F  
MCMINNVILLE SUNNY 62 47 57 N7 30.06F  
SALEM SUNNY 68 44 42 N8 30.06F  
CORVALLIS SUNNY 61 46 57 CALM 30.09S  
EUGENE SUNNY 63 46 54 NW5 30.08S  
CRESWELL SUNNY 61 46 59 NW8 30.07S  

 
 
ORZ021-028-131800-  
SOUTHWEST OREGON  
 
 
CITY SKY/WX TMP DP RH WIND PRES REMARKS
 
NORTH BEND MOSUNNY 56 49 77 N20G26 30.12S  
BROOKINGS CLOUDY 49 49 100 S5 30.03S FOG  
ROSEBURG SUNNY 64 43 46 NE12G18 30.07F  
SEXTON SUMMIT SUNNY 55 40 56 VRB5 30.06S  
GRANTS PASS SUNNY 66 41 39 CALM 30.05F  
MEDFORD SUNNY 66 41 40 CALM 30.02S  

 
 
ORZ014>016-041-131800-  
COLUMBIA GORGE  
 
 
CITY SKY/WX TMP DP RH WIND PRES REMARKS
 
TROUTDALE SUNNY 61 47 59 N3 30.07F  
HOOD RIVER SUNNY 63 41 45 CALM 30.04F  
THE DALLES SUNNY 66 45 46 NW7 30.02F  

 
 
ORZ029>031-041-044-049-050-061>064-502-503-505>511-131800-  
EASTERN OREGON  
 
 
CITY SKY/WX TMP DP RH WIND PRES REMARKS
 
MADRAS SUNNY 64 32 29 NW5 30.06S  
REDMOND SUNNY 66 27 23 CALM 30.03F  
BEND SUNNY 68 23 18 N5 30.03F  
PRINEVILLE SUNNY 64 25 22 CALM 30.04F  
KLAMATH FALLS SUNNY 70 37 29 N3 30.03F  
LAKEVIEW SUNNY 70 38 31 SE3 30.07F  
HERMISTON SUNNY 69 39 33 CALM 30.02F  
PENDLETON SUNNY 70 35 27 NW5 30.02F  
JOHN DAY SUNNY 69 33 26 CALM 30.03F  
MEACHAM SUNNY 67 23 19 VRB6 30.06F  
LA GRANDE SUNNY 60 32 34 NE5 30.08F  
BAKER CITY SUNNY 68 31 25 W6 30.06F  
BURNS SUNNY 73 38 27 E7 30.05F  
ROME N/A 75 33 21 NE6 30.02F  
ONTARIO SUNNY 77 34 21 NE3 29.99F  

 
 
OTHER REGIONAL REPORTS  
 
CITY SKY/WX TMP DP RH WIND PRES REMARKS
 
SEATTLE PTSUNNY 57 45 64 W7 30.11S  
SPOKANE MOSUNNY 68 37 32 NE7 30.07F  
VANCOUVER BC MOSUNNY 59 50 72 SW7 30.10F  
PRINCE GEORGE SUNNY 54 34 47 W3 30.08F  
DAWSON CREEK SUNNY 61 27 27 W14G24 29.97F  
WHITEHORSE MOSUNNY 50 27 40 N6 30.07F  
BOISE SUNNY 72 37 28 VRB3 30.00S  
REDDING SUNNY 83 55 38 S8 29.86S  
SAN FRANCISCO MOSUNNY 61 51 70 NE3 29.95S  
 

 
 
 
 
CLICK HERE TO GO TO PREVIOUS BULLETINS.

The Nexlab OR Page Main Text Page